STARLINK-11524, 62839

Orbit data source: Space-Track

STARLINK-11524, 62839 is a payload satellite owned by SpaceX/Seattle (US) in LEO that was launched on Mon, 27 Jan 2025 UTC via an FALCON 9 launch vehicle from the Air Force Eastern Test Range (AFETR). Payload-class satellites include a variety of spacecraft equipped with specific instruments for various scientific and technological missions. These include communications satellites like Starlink; space stations such as the ISS; scientific satellites like the Hubble; Earth observation satellites from companies like Planet Labs, Umbra, and HawkEye 360; GPS; miniature CubeSats for education and research; and military/defense satellites.

Loading next visibility...
Identifier
62839, 2025-019L
Orbit
LEO
Last TLE update
5 hours ago
Origin
Manufacturer
SpaceX/Seattle
Mission
Operational Commercial Communications
Bus & Motor
STARLINK V2M, Unknown motor
Mass
730 kg wet, ~700 kg dry
Launch date (UTC)
2025-01-27 (5 months ago)
Launch vehicle
FALCON 9
Launch site
Air Force Eastern Test Range (AFETR)
Object type
Payload
Rocket body
Debris
Shape & HBR
Box + 2 Pan, 29 m
Radar Cross Section
36.964 m², Large (>1 m²)

Expand to show TLE details & history

TLE from 5 hours ago
0 STARLINK-11524
1 62839U 25019L   25186.52387352  .00161942  00000-0  12387-2 0  9998
2 62839  42.9989 356.2048 0002623 265.6685  94.3883 15.70884675 25935
Epoch: 2025-07-05T12:34Z
TLE epoch observation values (Epoch: 2025-07-05T12:34:22.672Z)
Latitude
Longitude
-116.15035°
Altitude
356.274 km
Speed
7.697 km/s
True Right ascension
23h 44m 49s
True Declination
0° 00' 00"
Sunlit
Object was in daylight at epoch
Visualization orbit readout
Latitude
14.14253°
Longitude
-101.73612°
Altitude
355.934 km
Speed
7.698 km/s
Apparent Right ascension
21h 44m 58s
Apparent Declination
-20° 43' 20"
Sunlit
Object is in daylight
Visualization observer readout
Local Sidereal Time
05:09:41
Azimuth
266.42° W
Elevation
-29.093°
Doppler factor
1
Orbital elements
Apogee altitude
360.116 km
Perigee altitude
356.582 km
Semi-major axis
6,736.486 km
Eccentricity
0.00026
Inclination
42.9989°
RAAN
356.2048°
Arg. of periapsis
265.6685°
True anomaly
Unknown
Mean anomaly
94.3883°
Eccentric anomaly
Unknown
Mean motion
3.92548 °/min
Orbital period
91.71 mins
BSTAR
0.0012387
Loading maneuver chart data...
Loading SW <> Apogee altitude chart data...
Loading historical data...
Loading historical data...
Loading historical data...
Loading historical data...
Loading historical data...
Loading historical data...
Loading historical data...

STARLINK-11524 Visibility forecast

Observer location: undefined°, undefined°

Span
Click to sort rows by Start time (UTC) header in descending order
Start Az.
Max El. time (UTC)
Max El. Az.
Max El.
End time (UTC)
End Az.
4 mins2025-07-05 17:29:20.904Z290.523° WNW2025-07-05 17:31:20.904Z3.046° NNE34.502°2025-07-05 17:33:20.904Z66.37° ENE
4 mins2025-07-05 19:06:20.904Z298.363° NW2025-07-05 19:07:20.904Z337.19° NNW42.182°2025-07-05 19:10:20.904Z99.46° ESE
|